EW5804 Weather Reports


time (UTC)temp
F
wind
direction
speed
knots
gust
knots
rain 1hr
in
rain 24hr
in
rain mn
in
humidity
%
barometer
mb
20260507160553 54 51 4.3 11.3 0.16 0.46 0.46 89 1011.9
20260507160327 55 50 3.5 9.6 0.16 0.46 0.46 89 1011.8
20260507155549 55 81 2.6 7.8 0.16 0.46 0.46 89 1011.8
20260507155049 55 33 2.6 7.8 0.14 0.44 0.45 89 1011.9
20260507154545 55 41 2.6 6.1 0.14 0.44 0.44 89 1011.7
20260507154042 55 40 2.6 7.8 0.12 0.42 0.42 88 1011.8
20260507153542 55 23 2.6 7.8 0.10 0.40 0.40 88 1011.8
20260507153304 55 62 2.6 5.2 0.07 0.37 0.37 88 1011.8
20260507152539 55 28 6.1 14.8 0.05 0.34 0.35 88 1011.7
20260507152038 55 51 8.7 16.5 0.03 0.32 0.33 88 1011.3
20260507151535 55 39 8.7 16.5 0.02 0.31 0.31 88 1011.1
20260507151301 55 41 7.8 13.9 0.01 0.30 0.30 87 1011.4
20260507150534 55 83 7.0 12.2 0.01 0.30 0.30 87 1011.3
20260507150256 55 56 7.8 13.0 0.01 0.30 0.30 88 1012.0
20260507145535 55 53 7.8 13.0 0.01 0.30 0.30 87 1011.9
20260507145033 55 47 7.8 12.2 0.01 0.30 0.30 88 1012.0
20260507144802 56 45 7.0 13.0 0.01 0.30 0.30 88 1012.0
20260507144032 56 45 6.1 13.0 0.01 0.30 0.30 88 1012.1
20260507143531 56 52 7.0 13.9 0.01 0.30 0.30 88 1011.9
20260507143031 57 43 7.8 13.9 0.01 0.30 0.30 88 1011.9
20260507142530 57 58 7.0 12.2 0.00 0.29 0.30 88 1011.6
20260507142252 57 44 7.0 12.2 0.00 0.29 0.29 88 1011.8
20260507141531 57 88 8.7 13.9 0.00 0.29 0.29 89 1011.6
20260507141033 58 32 9.6 14.8 0.00 0.29 0.29 89 1011.4
20260507140526 58 47 7.8 14.8 0.00 0.29 0.29 89 1011.3
20260507140018 58 50 6.1 12.2 0.00 0.29 0.29 90 1011.3
20260507135513 58 68 6.1 12.2 0.00 0.29 0.29 90 1011.4
20260507135007 58 75 5.2 10.4 0.00 0.29 0.29 89 1011.4
20260507134501 58 42 4.3 8.7 0.00 0.29 0.29 89 1011.5
20260507133956 58 40 3.5 7.8 0.00 0.29 0.29 89 1011.4
20260507133448 58 68 4.3 10.4 0.00 0.29 0.29 89 1011.2
20260507133429 58 4 4.3 10.4 0.00 0.29 0.29 89 1011.4
20260507132437 58 39 3.5 7.0 0.00 0.29 0.29 89 1011.3
20260507131933 58 51 3.5 7.0 0.01 0.29 0.29 89 1011.4
20260507131651 58 48 4.3 7.8 0.01 0.29 0.29 89 1011.3
20260507130919 58 45 5.2 9.6 0.02 0.29 0.29 89 1011.2
20260507130414 58 52 5.2 10.4 0.04 0.29 0.29 89 1011.3
20260507125908 58 75 5.2 11.3 0.04 0.29 0.29 89 1011.4
20260507125401 58 57 7.0 11.3 0.05 0.29 0.29 89 1011.1
20260507124856 58 45 7.8 11.3 0.05 0.29 0.29 89 1011.3
20260507124349 58 55 7.0 12.2 0.06 0.29 0.29 89 1011.2
20260507124104 59 43 4.3 12.2 0.07 0.29 0.29 90 1011.5
20260507123337 60 43 1.7 6.1 0.09 0.29 0.29 90 1011.4
20260507122830 60 263 2.6 7.0 0.10 0.29 0.29 90 1011.5
20260507122325 60 51 4.3 10.4 0.10 0.29 0.29 90 1011.2
20260507121819 60 53 5.2 10.4 0.09 0.28 0.28 90 1011.2
20260507121315 60 80 4.3 9.6 0.09 0.28 0.28 90 1011.0
20260507120808 60 43 3.5 7.8 0.07 0.26 0.27 90 1010.8
20260507120301 60 41 2.6 7.0 0.07 0.25 0.25 90 1011.2
20260507115755 61 40 3.5 8.7 0.06 0.24 0.25 90 1011.3
20260507115249 61 47 4.3 9.6 0.07 0.24 0.24 90 1011.2
20260507114743 61 50 4.3 9.6 0.07 0.24 0.24 90 1011.1
20260507114459 62 56 3.5 9.6 0.06 0.23 0.23 90 1011.1
20260507113733 62 44 2.6 9.6 0.05 0.21 0.22 90 1010.9
20260507113226 62 21 3.5 8.7 0.03 0.19 0.20 90 1011.0
20260507112719 63 72 4.3 11.3 0.03 0.19 0.19 90 1010.8
20260507112213 64 329 2.6 11.3 0.03 0.19 0.19 90 1010.9
20260507111925 66 40 0.0 8.7 0.03 0.19 0.19 91 1010.6
20260507111203 65 219 0.0 1.7 0.04 0.19 0.19 91 1010.5
20260507110658 66 219 0.0 1.7 0.04 0.19 0.19 91 1010.5
20260507110149 65 220 0.0 0.9 0.03 0.18 0.18 91 1010.4
20260507105644 65 219 0.0 0.9 0.04 0.18 0.18 91 1010.5
20260507105406 65 219 0.0 0.9 0.03 0.17 0.17 91 1010.4
20260507104631 65 216 0.0 0.9 0.04 0.17 0.17 91 1010.5
20260507104350 65 216 0.0 0.9 0.05 0.17 0.17 91 1010.2
20260507103620 65 216 0.0 2.6 0.06 0.16 0.16 91 1010.2
20260507103114 65 216 0.9 2.6 0.07 0.16 0.16 91 1010.2
20260507102607 65 216 0.9 2.6 0.08 0.16 0.16 91 1010.0
20260507102101 65 207 0.9 1.7 0.08 0.16 0.16 91 1010.0
20260507101608 65 207 0.0 1.7 0.09 0.16 0.16 91 1010.2
20260507101050 66 207 0.9 2.6 0.08 0.15 0.15 91 1010.1
20260507100543 66 207 0.9 2.6 0.08 0.15 0.15 91 1010.2
20260507100037 66 254 0.9 1.7 0.08 0.15 0.15 91 1010.0
20260507095531 66 255 0.9 3.5 0.07 0.14 0.14 91 1010.3
20260507095025 66 257 0.9 3.5 0.07 0.14 0.14 91 1010.1
20260507094738 66 254 0.9 2.6 0.05 0.12 0.13 91 1010.1
20260507094013 66 254 0.9 3.5 0.05 0.11 0.11 91 1010.4
20260507093507 66 254 1.7 3.5 0.05 0.10 0.10 90 1010.2
20260507093001 66 261 0.9 2.6 0.04 0.09 0.09 90 1010.2
20260507092454 66 260 0.9 3.5 0.03 0.08 0.08 90 1010.0
20260507091949 66 261 0.9 3.5 0.02 0.07 0.08 90 1009.7
20260507091443 66 262 1.7 3.5 0.02 0.07 0.07 90 1009.7
20260507090938 66 257 1.7 7.0 0.02 0.07 0.07 90 1009.3
20260507090431 66 193 1.7 7.0 0.02 0.07 0.07 90 1009.2
20260507085925 66 186 1.7 6.1 0.02 0.07 0.07 91 1009.2
20260507085642 66 223 1.7 5.2 0.02 0.07 0.07 91 1009.3
20260507084915 66 248 1.7 5.2 0.02 0.07 0.07 91 1009.6
20260507084410 66 241 1.7 7.8 0.02 0.07 0.07 90 1009.5
20260507084401 66 219 1.7 7.8 0.01 0.06 0.06 90 1009.6
20260507083355 66 168 0.9 4.3 0.00 0.05 0.05 90 1009.9
20260507083113 66 197 1.7 4.3 0.00 0.05 0.05 90 1009.9
20260507082344 66 208 2.6 6.1 0.00 0.05 0.05 90 1009.9
20260507082100 66 280 2.6 6.1 0.00 0.05 0.05 91 1010.0
20260507081331 66 211 2.6 6.1 0.00 0.05 0.05 90 1009.8
20260507080826 66 198 1.7 7.0 0.00 0.05 0.05 90 1009.7
20260507080321 66 210 1.7 7.0 0.00 0.05 0.05 90 1009.7
20260507075820 66 195 0.9 4.3 0.00 0.05 0.05 90 1009.7
20260507075322 66 190 1.7 5.2 0.00 0.05 0.05 90 1009.8
20260507074820 66 169 1.7 5.2 0.00 0.05 0.05 90 1010.0
20260507074321 66 192 1.7 4.3 0.00 0.05 0.05 90 1010.2
20260507074038 66 203 1.7 4.3 0.00 0.05 0.05 90 1010.2
20260507073321 66 229 1.7 4.3 0.00 0.05 0.05 90 1010.4
20260507072821 66 207 1.7 4.3 0.00 0.05 0.05 90 1010.4
20260507072318 66 219 1.7 4.3 0.00 0.05 0.05 90 1010.3
20260507071816 66 187 0.9 3.5 0.00 0.05 0.05 90 1010.3
20260507071314 66 177 1.7 3.5 0.00 0.05 0.05 90 1010.2
20260507071033 66 192 0.9 5.2 0.00 0.05 0.05 90 1010.3
20260507070314 66 211 0.9 5.2 0.01 0.05 0.05 90 1010.5
20260507065812 66 215 0.9 4.3 0.02 0.05 0.05 90 1010.4
20260507065310 66 193 0.9 4.3 0.02 0.05 0.05 90 1010.4
20260507064808 66 217 0.9 3.5 0.02 0.05 0.05 90 1010.4
20260507064309 66 222 0.9 3.5 0.03 0.05 0.05 89 1010.3
20260507063809 66 187 1.7 3.5 0.03 0.05 0.05 89 1010.4
20260507063308 66 235 1.7 3.5 0.03 0.05 0.05 89 1010.1
20260507062805 66 232 1.7 3.5 0.03 0.05 0.05 89 1010.2
20260507062531 66 254 1.7 3.5 0.03 0.05 0.05 89 1010.1
20260507061804 66 193 1.7 3.5 0.03 0.05 0.05 89 1010.0
20260507061306 66 208 0.9 3.5 0.04 0.05 0.05 89 1010.0
20260507060804 67 207 0.9 2.6 0.03 0.04 0.05 89 1009.8
20260507060305 66 203 0.9 3.5 0.03 0.04 0.04 89 1009.7
20260507055804 67 196 1.7 4.3 0.02 0.03 0.03 89 1010.0
20260507055306 67 198 1.7 4.3 0.03 0.03 0.03 89 1010.5
20260507054804 67 153 1.7 4.3 0.03 0.03 0.03 88 1010.8
20260507054300 67 236 1.7 3.5 0.02 0.02 0.02 88 1010.9
20260507053800 67 181 1.7 5.2 0.02 0.02 0.02 88 1011.2
20260507053740 67 207 1.7 5.2 0.02 0.02 0.02 88 1011.2
20260507052800 67 203 0.9 2.6 0.02 0.02 0.02 87 1011.4
20260507052300 67 203 0.9 5.2 0.02 0.02 0.02 87 1011.5
20260507051800 67 261 1.7 5.2 0.02 0.02 0.02 87 1011.6
20260507051300 67 213 1.7 5.2 0.01 0.01 0.02 87 1011.6
20260507050801 67 239 1.7 5.2 0.01 0.01 0.01 87 1011.6
20260507050300 67 200 1.7 3.5 0.01 0.01 0.01 87 1011.6
20260507045755 67 229 1.7 3.5 0.01 0.01 0.01 86 1011.7
20260507045257 67 209 0.9 3.5 0.00 0.00 0.00 86 1011.6
20260507044756 67 191 0.9 3.5 0.00 0.00 0.00 86 1011.4
20260507044255 67 227 0.9 3.5 0.00 0.00 0.00 85 1011.3
20260507043756 68 227 0.9 3.5 0.00 0.00 0.00 85 1011.2
20260507043516 68 197 0.9 2.6 0.00 0.00 0.00 84 1011.1
20260507042754 68 197 1.7 3.5 0.00 0.00 0.00 84 1011.0
20260507042255 68 215 1.7 3.5 0.00 0.00 0.00 84 1010.9
20260507042248 68 226 1.7 3.5 0.00 0.00 0.00 83 1010.9
20260507041242 68 232 1.7 3.5 0.00 0.00 0.00 83 1011.1
20260507040733 68 217 0.9 4.3 0.00 0.00 0.00 82 1011.1
20260507040236 68 206 0.9 4.3 0.00 0.00 0.00 82 1011.1
20260507035729 68 239 0.9 2.6 0.00 0.00 0.00 82 1011.2
20260507035231 68 257 1.7 4.3 0.00 0.00 0.00 82 1011.2
20260507034948 68 258 1.7 6.1 0.00 0.00 0.00 82 1011.0
20260507034230 68 184 1.7 6.1 0.00 0.00 0.00 82 1011.1
20260507033730 68 199 0.9 3.5 0.00 0.00 0.00 81 1011.0
20260507033226 68 178 0.9 3.5 0.00 0.00 0.00 81 1010.9
20260507032727 69 240 0.9 2.6 0.00 0.00 0.00 81 1010.8
20260507032227 69 242 0.9 2.6 0.00 0.00 0.00 81 1010.7
20260507031725 68 246 0.9 4.3 0.00 0.00 0.00 81 1010.8
20260507031225 68 231 0.9 4.3 0.00 0.00 0.00 82 1010.7
20260507030724 68 190 0.9 5.2 0.00 0.00 0.00 81 1010.6
20260507030222 68 239 1.7 5.2 0.00 0.00 0.00 81 1010.9
20260507025721 68 211 1.7 4.3 0.00 0.00 0.00 81 1010.6
20260507025222 68 217 1.7 5.2 0.00 0.00 0.00 81 1010.9
20260507024723 68 233 2.6 6.1 0.00 0.00 0.00 81 1010.9
20260507024221 68 190 1.7 6.1 0.00 0.00 0.00 81 1011.1
20260507023722 68 229 1.7 4.3 0.00 0.00 0.00 82 1011.2
20260507023234 68 240 1.7 6.1 0.00 0.00 0.00 82 1011.3
20260507022722 68 215 1.7 6.1 0.00 0.00 0.00 81 1011.2
20260507022221 68 229 0.9 6.1 0.00 0.00 0.00 81 1011.2
20260507021722 68 209 0.9 2.6 0.00 0.00 0.00 81 1011.4
20260507021235 68 209 0.9 2.6 0.00 0.00 0.00 81 1011.5
20260507020946 68 209 0.0 2.6 0.00 0.00 0.00 81 1011.3
20260507020218 68 208 0.0 0.9 0.00 0.00 0.00 81 1011.2
20260507015719 68 207 0.9 3.5 0.00 0.00 0.00 80 1011.2
20260507015218 68 207 0.9 3.5 0.00 0.00 0.00 80 1011.0
20260507014717 68 215 0.9 2.6 0.00 0.00 0.00 81 1011.1
20260507014435 68 219 0.9 4.3 0.00 0.00 0.00 81 1011.1
20260507013732 68 239 1.7 5.2 0.00 0.00 0.00 81 1011.2
20260507013218 68 257 1.7 5.2 0.00 0.00 0.00 81 1011.2
20260507012717 68 243 0.9 2.6 0.00 0.00 0.00 81 1011.2
20260507012215 68 203 0.9 3.5 0.00 0.00 0.00 80 1011.0
20260507011714 68 199 0.9 3.5 0.00 0.00 0.00 79 1010.8
20260507011213 69 216 0.9 2.6 0.00 0.00 0.00 79 1011.0
20260507010713 69 228 0.9 2.6 0.00 0.00 0.00 79 1011.0
20260507010213 69 228 0.0 3.5 0.00 0.00 0.00 78 1011.0
20260507005714 69 218 0.0 3.5 0.00 0.00 0.00 78 1011.0
20260507005431 70 200 0.9 3.5 0.00 0.00 0.00 78 1011.1
20260507004714 70 199 0.0 3.5 0.00 0.00 0.00 77 1011.1
20260507004214 70 209 0.0 2.6 0.00 0.00 0.00 77 1011.3
20260507003713 71 209 0.0 2.6 0.00 0.00 0.00 76 1011.3
20260507003215 71 189 0.9 5.2 0.00 0.00 0.00 76 1011.4
20260507002715 71 188 0.9 5.2 0.00 0.00 0.00 75 1011.4
20260507002216 71 239 0.9 2.6 0.00 0.00 0.00 75 1011.3
20260507001716 72 240 0.9 2.6 0.00 0.00 0.00 75 1011.1
20260507001213 72 219 0.9 1.7 0.00 0.00 0.00 74 1010.9
20260507000712 72 219 0.9 1.7 0.00 0.00 0.00 73 1011.0
20260507000212 72 220 0.9 5.2 0.00 0.00 0.00 73 1011.0
20260506235707 73 220 0.9 5.2 0.00 0.00 0.00 73 1010.9
20260506235207 73 208 0.9 5.2 0.00 0.00 0.00 73 1010.8
20260506234708 73 205 1.7 5.2 0.00 0.00 0.00 72 1010.8
20260506234420 74 203 1.7 4.3 0.00 0.00 0.00 72 1010.6
20260506233653 74 228 1.7 6.1 0.00 0.00 0.00 71 1010.5
20260506233146 74 213 0.9 6.1 0.00 0.00 0.00 71 1010.5
20260506232641 74 207 1.7 6.1 0.00 0.00 0.00 71 1010.6
20260506232135 74 202 0.9 2.6 0.00 0.00 0.00 70 1010.5
20260506231629 75 240 0.9 2.6 0.00 0.00 0.00 70 1010.4
20260506231123 75 239 1.7 6.1 0.00 0.00 0.00 69 1010.3
20260506230617 75 253 1.7 6.1 0.00 0.00 0.00 69 1010.4
20260506230112 75 220 2.6 6.1 0.00 0.00 0.00 69 1010.4
20260506230055 75 203 1.7 6.1 0.00 0.00 0.00 68 1010.4
20260506225059 76 181 1.7 6.1 0.00 0.00 0.00 68 1010.3
20260506224554 76 196 1.7 7.0 0.00 0.00 0.00 68 1010.5
20260506224309 76 261 1.7 7.0 0.00 0.00 0.00 67 1010.4
20260506223541 76 249 2.6 7.8 0.00 0.00 0.00 67 1010.3
20260506223254 76 199 3.5 10.4 0.00 0.00 0.00 66 1010.3
20260506222529 76 224 3.5 12.2 0.00 0.00 0.00 66 1010.4
20260506222023 76 236 3.5 12.2 0.00 0.00 0.00 66 1010.6
20260506221517 77 197 2.6 11.3 0.00 0.00 0.00 66 1010.5
20260506221010 76 204 2.6 11.3 0.00 0.00 0.00 66 1010.6
20260506220505 76 170 2.6 8.7 0.00 0.00 0.00 66 1010.6
20260506220000 76 256 2.6 8.7 0.00 0.00 0.00 66 1010.5
20260506215453 76 255 2.6 12.2 0.00 0.00 0.00 66 1010.5
20260506214947 76 203 2.6 12.2 0.00 0.00 0.00 65 1010.5
20260506214708 76 238 1.7 7.8 0.00 0.00 0.00 65 1010.3
20260506213935 76 268 2.6 8.7 0.00 0.00 0.00 65 1010.1
20260506213428 76 270 3.5 8.7 0.00 0.00 0.00 65 1010.1
20260506213140 76 211 2.6 7.0 0.00 0.00 0.00 66 1010.0
20260506212416 76 221 3.5 9.6 0.00 0.00 0.00 66 1010.1
20260506211912 76 216 3.5 9.6 0.00 0.00 0.00 66 1010.1
20260506211627 75 254 2.6 7.0 0.00 0.00 0.00 67 1010.2
20260506210859 75 265 3.5 10.4 0.00 0.00 0.00 67 1009.9
20260506210353 75 193 3.5 9.6 0.00 0.00 0.00 68 1009.9
20260506205848 76 132 3.5 9.6 0.00 0.00 0.00 67 1010.2
20260506205340 76 149 3.5 9.6 0.00 0.00 0.00 67 1010.0
20260506204835 76 192 3.5 9.6 0.00 0.00 0.00 66 1010.1
20260506204328 76 182 3.5 8.7 0.00 0.00 0.00 66 1010.1
20260506203824 76 211 3.5 8.7 0.00 0.00 0.00 66 1010.3
20260506203317 76 199 3.5 10.4 0.00 0.00 0.00 66 1010.2
20260506203032 76 176 4.3 10.4 0.00 0.00 0.00 65 1010.1
20260506202306 76 186 5.2 14.8 0.00 0.00 0.00 66 1010.2
20260506202252 76 176 5.2 14.8 0.00 0.00 0.00 65 1010.2
20260506201515 77 162 4.3 13.0 0.00 0.00 0.00 65 1010.4
20260506200746 77 131 4.3 15.6 0.00 0.00 0.00 64 1010.4
20260506200245 77 188 5.2 15.6 0.00 0.00 0.00 63 1010.6
20260506200005 77 165 5.2 14.8 0.00 0.00 0.00 64 1010.6
20260506195242 78 114 4.3 13.9 0.00 0.00 0.00 63 1010.7
20260506194744 77 218 5.2 10.4 0.00 0.00 0.00 63 1010.9
20260506194243 77 199 4.3 11.3 0.00 0.00 0.00 64 1010.9
20260506194005 77 175 4.3 11.3 0.00 0.00 0.00 63 1011.2
20260506193243 77 196 4.3 16.5 0.00 0.00 0.00 63 1011.2
20260506192741 77 207 5.2 16.5 0.00 0.00 0.00 63 1011.3
20260506192241 77 166 4.3 14.8 0.00 0.00 0.00 64 1011.4
20260506191741 77 286 4.3 14.8 0.00 0.00 0.00 64 1011.7
20260506191242 77 170 4.3 14.8 0.00 0.00 0.00 64 1011.8
20260506190741 77 203 3.5 12.2 0.00 0.00 0.00 65 1011.8
20260506190241 77 205 4.3 12.2 0.00 0.00 0.00 66 1011.9
20260506185741 76 230 4.3 12.2 0.00 0.00 0.00 65 1011.9
20260506185240 76 202 3.5 11.3 0.00 0.00 0.00 66 1012.0
20260506184741 76 205 3.5 10.4 0.00 0.00 0.00 66 1012.0
20260506184239 77 180 3.5 10.4 0.00 0.00 0.00 66 1012.1
20260506183739 77 203 4.3 14.8 0.00 0.00 0.00 66 1012.2
20260506183232 77 64 5.2 14.8 0.00 0.00 0.00 66 1012.2
20260506183221 77 207 5.2 13.0 0.00 0.00 0.00 66 1012.2
20260506182220 77 332 5.2 12.2 0.00 0.00 0.00 66 1012.2
20260506181715 76 237 5.2 12.2 0.00 0.00 0.00 66 1012.2
20260506181209 76 192 6.1 14.8 0.00 0.00 0.00 66 1012.2
20260506180704 76 192 6.1 14.8 0.00 0.00 0.00 65 1012.3
20260506180157 76 282 5.2 12.2 0.00 0.00 0.00 68 1012.3
20260506175652 76 207 4.3 12.2 0.00 0.00 0.00 68 1012.2
20260506175144 76 167 4.3 10.4 0.00 0.00 0.00 68 1012.3
20260506174900 75 228 5.2 13.9 0.00 0.00 0.00 68 1012.3
20260506174133 76 269 6.1 14.8 0.00 0.00 0.00 68 1012.4
20260506173628 75 355 5.2 14.8 0.00 0.00 0.00 69 1012.3
20260506173121 75 191 5.2 14.8 0.00 0.00 0.00 68 1012.4
20260506172614 75 175 5.2 14.8 0.00 0.00 0.00 69 1012.7
20260506172333 75 287 4.3 14.8 0.00 0.00 0.00 69 1012.8
20260506171604 74 163 4.3 10.4 0.00 0.00 0.00 71 1012.9
20260506171057 74 159 5.2 13.0 0.00 0.00 0.00 71 1012.8
20260506170550 73 186 4.3 13.0 0.00 0.00 0.00 72 1013.0
20260506165549 73 245 4.3 10.4 0.00 0.00 0.00 72 1013.4
20260506165047 73 201 3.5 11.3 0.00 0.00 0.00 73 1013.5
20260506164547 73 191 3.5 11.3 0.00 0.00 0.00 72 1013.6
20260506164046 73 211 3.5 9.6 0.00 0.00 0.00 72 1013.6
20260506163808 72 332 3.5 13.9 0.00 0.00 0.00 73 1013.7
20260506163048 72 184 4.3 13.9 0.00 0.00 0.00 72 1013.6
20260506162546 72 279 4.3 13.9 0.00 0.00 0.00 74 1013.5
20260506162536 72 269 3.5 13.9 0.00 0.00 0.00 74 1013.5
20260506161547 71 274 3.5 12.2 0.00 0.00 0.00 74 1013.5
20260506161324 71 182 3.5 12.2 0.00 0.00 0.00 74 1013.5